Location: Newark
(39.9500°N, 8.6833°E)
Time: 09:44:40
(UTC+00:00)

NO-84 - Pass Details

Date: 26 February 2020
Orbit: 328 x 491 km, 55.0° (Epoch: 01 April)

Event Time Altitude Azimuth Distance (km) Brightness Sun altitude
Exits shadow 03:26:55 15° 40° (NE) 1,379 ? -30.7°
Drops below altitude 10° 03:28:25 10° 63° (ENE) 1,640 ? -30.4°
Sets 03:31:11 0° 86° (E) 2,484 ? -29.9°
